Location: Newark
(45.2500°N, 7.5833°E)
Time: 15:17:18
(UTC+00:00)

A-11 Canister half - Pass Details

Date: 01 February 2020
Orbit: 1525 x 1684 km, 47.3° (Epoch: 17 February)

Event Time Altitude Azimuth Distance (km) Brightness Sun altitude
Rises 15:45:34 0° 240° (WSW) 4,666 14.2 7.0°
Reaches altitude 10° 15:48:35 10° 239° (WSW) 3,685 14.5 6.5°
Maximum altitude 15:57:50 77° 155° (SSE) 1,570 9.3 5.1°
Drops below altitude 10° 16:07:18 10° 72° (ENE) 3,759 10.4 3.7°
Sets 16:10:24 0° 71° (ENE) 4,764 10.9 3.2°
